Date String (YYYY-MM-DD hh:mm:ss) UTC,Instrument flags,Ambient pressure (hPa),Sample flow (lpm),Bypass flow (lpm),Sample temperature (°C),Ambient temperature (°C),ASC tube jacket temperature (°C),LED temperature (°C),Box temperature (°C),Sample RH (%),Span deviation,Mass concentration (μg/m³),Mass concentration (μg/m³),Mass concentration (μg/m³)
DateTimeUTC,F1_M11,P_M11,Q1_M11,Q2_M11,T1_M11,T2_M11,T3_M11,T4_M11,T5_M11,U1_M11,ZSPAN_M11,X0_M11,X2_M11,X1_M11
2021-11-10 13:00:00,,0822.0,5.01,0.00,26.1,25.2,00.0,35.1,27.9,15.7,0002.8,0012.96,0006.01,0004.90
2021-11-10 13:01:00,,0821.9,4.99,0.00,26.1,25.2,00.0,35.1,27.8,15.7,0003.4,0013.42,0006.08,0004.96
2021-11-10 13:02:00,,0822.0,5.00,0.00,26.1,25.2,00.0,35.1,27.8,15.6,0002.8,0013.80,0006.08,0004.98
2021-11-10 13:03:00,,0822.1,5.01,0.00,26.0,25.2,00.0,35.1,27.8,15.6,0002.6,0013.29,0006.12,0005.03
2021-11-10 13:04:00,,0822.1,4.99,0.00,26.0,25.2,00.0,35.1,27.8,15.6,0002.5,0013.30,0006.20,0005.14
2021-11-10 13:05:00,,0822.1,5.00,0.00,26.1,25.2,00.0,35.1,27.9,15.6,0002.7,0013.47,0006.32,0005.24
2021-11-10 13:06:00,,0822.1,4.99,0.00,26.1,25.2,00.0,35.1,27.9,15.5,0002.7,0013.82,0006.46,0005.34
2021-11-10 13:07:00,,0822.2,5.00,0.00,26.1,25.2,00.0,35.1,27.8,15.5,0002.6,0014.01,0006.52,0005.42
2021-11-10 13:08:00,,0822.2,5.00,0.00,26.0,25.2,00.0,35.1,27.8,15.7,0002.1,0014.57,0006.59,0005.48
2021-11-10 13:09:00,,0822.2,5.00,0.00,26.0,25.1,00.0,35.1,27.8,15.7,0001.9,0014.41,0006.71,0005.57
2021-11-10 13:10:00,,0822.3,5.00,0.00,26.0,25.1,00.0,35.1,27.8,15.8,0002.0,0014.47,0006.80,0005.65
2021-11-10 13:11:00,,0822.3,5.01,0.00,26.0,25.1,00.0,35.1,27.7,15.8,0001.7,0015.12,0006.89,0005.72
2021-11-10 13:12:00,,0822.2,5.01,0.00,26.0,25.1,00.0,35.1,27.8,15.8,0001.4,0015.07,0006.90,0005.75
2021-11-10 13:13:00,,0822.2,5.00,0.00,26.0,25.1,00.0,35.0,27.8,15.7,0001.9,0014.59,0006.88,0005.74
2021-11-10 13:14:00,,0822.2,5.00,0.00,26.0,25.1,00.0,35.0,27.8,15.6,0002.1,0014.90,0006.87,0005.75
2021-11-10 13:15:00,,0822.2,5.00,0.00,26.0,25.1,00.0,35.0,27.8,15.6,0002.1,0015.22,0006.88,0005.74
2021-11-10 13:16:00,,0822.2,4.99,0.00,26.0,25.1,00.0,35.0,27.8,15.1,0001.9,0015.58,0006.79,0005.69
2021-11-10 13:17:00,,0822.2,5.01,0.00,26.0,25.1,00.0,35.0,27.7,14.5,0001.8,0015.41,0006.60,0005.59
2021-11-10 13:18:00,,0822.2,4.99,0.00,26.0,25.1,00.0,35.0,27.7,13.4,0001.6,0014.72,0006.32,0005.37
2021-11-10 13:19:00,,0822.2,5.02,0.00,26.0,25.1,00.0,35.0,27.7,14.1,0001.0,0014.84,0006.09,0005.18
2021-11-10 13:20:00,,0822.2,4.98,0.00,25.9,25.0,00.0,35.0,27.7,14.6,0001.4,0014.46,0005.88,0005.01
2021-11-10 13:21:00,,0822.2,5.01,0.00,25.9,25.0,00.0,35.0,27.7,14.7,0001.7,0015.07,0005.68,0004.86
2021-11-10 13:22:00,,0822.2,5.01,0.00,25.9,25.0,00.0,35.0,27.7,14.2,0001.9,0014.29,0005.48,0004.65
2021-11-10 13:23:00,,0822.2,4.99,0.00,25.9,25.0,00.0,35.0,27.7,13.7,0002.0,0013.71,0005.18,0004.39
2021-11-10 13:24:00,,0822.2,5.00,0.00,25.9,25.0,00.0,35.0,27.7,12.5,0001.6,0013.11,0004.86,0004.10
2021-11-10 13:25:00,,0822.2,5.01,0.00,25.8,25.0,00.0,35.0,27.6,11.8,0001.8,0011.99,0004.43,0003.77
2021-11-10 13:26:00,,0822.2,5.00,0.00,25.8,24.9,00.0,34.9,27.6,12.0,0000.9,0011.03,0004.02,0003.41
2021-11-10 13:27:00,,0822.2,4.99,0.00,25.8,24.9,00.0,34.9,27.6,12.3,0000.0,0009.94,0003.67,0003.10
2021-11-10 13:28:00,,0822.2,5.01,0.00,25.8,24.9,00.0,34.9,27.5,12.6,0000.0,0009.38,0003.46,0002.74
2021-11-10 13:29:00,,0822.2,5.00,0.00,25.8,24.9,00.0,34.9,27.5,12.8,0000.0,0010.08,0003.43,0002.64
2021-11-10 13:30:00,,0822.2,5.00,0.00,25.8,24.9,00.0,34.9,27.5,13.0,0000.0,0009.20,0003.34,0002.45
2021-11-10 13:31:00,,0822.2,5.01,0.00,25.8,24.9,00.0,34.9,27.5,13.2,0000.0,0008.86,0003.15,0002.20
2021-11-10 13:32:00,,0822.2,4.99,0.00,25.8,24.9,00.0,34.9,27.5,14.1,0000.0,0008.58,0002.97,0002.00
2021-11-10 13:33:00,,0822.3,5.00,0.00,25.8,24.9,00.0,34.9,27.5,14.2,0000.0,0008.32,0002.83,0001.93
2021-11-10 13:34:00,,0822.3,5.01,0.00,25.8,24.9,00.0,34.9,27.5,14.4,0000.0,0008.12,0002.85,0001.96
2021-11-10 13:35:00,,0822.3,5.00,0.00,25.8,24.9,00.0,34.9,27.6,13.1,0000.0,0007.88,0002.86,0001.99
2021-11-10 13:36:00,,0822.4,5.00,0.00,25.8,24.9,00.0,34.9,27.5,12.7,0000.0,0007.97,0002.96,0002.08
2021-11-10 13:37:00,,0822.4,4.99,0.00,25.8,24.9,00.0,34.9,27.5,13.4,0000.0,0008.19,0003.15,0002.20
2021-11-10 13:38:00,,0822.3,5.00,0.00,25.8,24.9,00.0,34.9,27.5,13.0,0000.0,0008.40,0003.28,0002.35
2021-11-10 13:39:00,,0822.4,5.01,0.00,25.8,24.9,00.0,34.9,27.5,12.7,0000.0,0008.23,0003.31,0002.41
2021-11-10 13:40:00,,0822.4,5.00,0.00,25.8,24.9,00.0,34.9,27.5,12.3,0000.0,0007.15,0003.23,0002.39
2021-11-10 13:41:00,,0822.4,5.00,0.00,25.8,24.9,00.0,34.9,27.5,12.3,0000.0,0007.05,0003.17,0002.35
2021-11-10 13:42:00,,0822.4,4.99,0.00,25.8,24.9,00.0,34.9,27.5,12.4,0000.0,0007.35,0003.16,0002.31
2021-11-10 13:43:00,,0822.4,5.02,0.00,25.8,24.9,00.0,34.9,27.6,12.4,0000.0,0006.60,0003.02,0002.16
2021-11-10 13:44:00,,0822.4,5.00,0.00,25.8,24.9,00.0,34.9,27.6,12.4,0000.0,0006.84,0002.87,0001.96
2021-11-10 13:45:00,,0822.4,4.99,0.00,25.8,24.9,00.0,34.9,27.6,13.0,0000.0,0007.32,0002.64,0001.73
2021-11-10 13:46:00,,0822.4,5.02,0.00,25.8,24.9,00.0,34.9,27.6,12.8,0000.0,0007.33,0002.61,0001.69
2021-11-10 13:47:00,,0822.4,5.01,0.00,25.8,24.8,00.0,34.9,27.5,12.2,0000.0,0007.36,0002.63,0001.69
2021-11-10 13:48:00,,0822.4,4.99,0.00,25.8,24.8,00.0,34.9,27.5,11.5,0000.0,0007.34,0002.52,0001.60
2021-11-10 13:49:00,,0822.4,4.99,0.00,25.8,24.8,00.0,34.9,27.5,11.2,0000.0,0006.98,0002.29,0001.45
2021-11-10 13:50:00,,0822.4,5.00,0.00,25.8,24.8,00.0,34.9,27.5,11.2,0000.0,0006.78,0002.14,0001.34
2021-11-10 13:51:00,,0822.4,5.00,0.00,25.8,24.8,00.0,34.9,27.5,11.1,0000.0,0006.92,0002.11,0001.29
2021-11-10 13:52:00,,0822.4,5.00,0.00,25.8,24.8,00.0,34.9,27.5,11.1,0000.0,0006.82,0002.07,0001.24
2021-11-10 13:53:00,,0822.4,5.00,0.00,25.8,24.8,00.0,34.9,27.5,11.0,0000.0,0006.32,0002.00,0001.18
2021-11-10 13:54:00,,0822.4,4.98,0.00,25.8,24.8,00.0,34.9,27.5,11.0,0000.0,0005.29,0001.87,0001.11
2021-11-10 13:55:00,,0822.4,5.02,0.00,25.8,24.8,00.0,34.9,27.5,11.0,0000.0,0004.32,0001.70,0001.06
2021-11-10 13:56:00,,0822.4,4.99,0.00,25.8,24.8,00.0,34.9,27.5,10.8,0000.0,0003.11,0001.50,0000.96
2021-11-10 13:57:00,,0822.4,5.00,0.00,25.8,24.8,00.0,34.9,27.5,10.7,0000.0,0002.85,0001.34,0000.86
2021-11-10 13:58:00,,0822.4,4.99,0.00,25.8,24.7,00.0,34.9,27.4,10.7,0000.0,0002.88,0001.25,0000.79
2021-11-10 13:59:00,,0822.5,5.01,0.00,25.8,24.7,00.0,34.9,27.4,10.7,0000.0,0002.57,0001.16,0000.77
